Total_Precipitation_Accumulation
1.33 1.35 1.25 1.43 1.51 1.54 1.60 1.66 1.56 1.45 1.45 1.28 1.27 1.27 1.27 1.15 1.23 1.30 1.56 1.84 2.32 2.99 3.15 2.84 2.56 2.32 2.16 2.07 2.13 2.15 2.26 2.25 2.42 2.53 2.56 2.80 2.95 2.66 2.72 2.76 2.83 3.19 3.53
1.17 1.39 1.30 1.29 1.39 1.59 1.70 1.70 1.62 1.66 1.65 1.45 1.40 1.41 1.39 1.34 1.37 1.42 1.55 1.51 1.59 2.12 2.74 3.05 3.06 2.83 2.56 2.39 2.21 2.23 2.34 2.23 2.23 2.32 2.38 2.51 2.80 2.61 2.67 2.82 2.81 3.05 3.37
1.10 1.34 1.29 1.20 1.21 1.37 1.56 1.78 1.84 1.82 1.61 1.52 1.49 1.49 1.40 1.40 1.41 1.58 1.62 1.63 1.51 1.54 1.98 2.39 2.80 2.87 2.86 2.74 2.44 2.30 2.39 2.33 2.29 2.23 2.22 2.28 2.63 2.70 2.74 2.87 2.81 2.95 3.08
0.89 1.15 1.24 1.17 1.16 1.32 1.57 1.82 1.99 2.04 1.86 1.79 1.78 1.69 1.51 1.47 1.42 1.56 1.60 1.68 1.77 1.54 1.50 1.61 1.92 2.27 2.44 2.53 2.57 2.51 2.52 2.40 2.21 2.13 2.02 2.04 2.31 2.52 2.69 2.74 2.72 2.86 2.96
0.83 1.09 1.31 1.35 1.32 1.44 1.56 1.57 1.83 1.97 2.07 1.97 1.78 1.65 1.58 1.60 1.59 1.54 1.68 1.68 1.71 1.64 1.48 1.20 1.24 1.48 1.79 2.15 2.36 2.47 2.60 2.55 2.32 2.17 1.93 1.84 1.99 2.28 2.64 2.45 2.48 2.62 2.86
1.00 1.24 1.50 1.53 1.58 1.62 1.72 1.91 2.20 2.24 2.16 2.14 1.90 1.66 1.53 1.57 1.62 1.71 1.73 1.71 1.73 1.57 1.43 1.26 1.14 1.00 1.23 1.58 1.96 2.26 2.42 2.57 2.50 2.43 2.15 1.84 1.83 2.07 2.43 2.39 2.40 2.53 2.76
1.17 1.41 1.61 1.85 1.96 1.83 1.86 2.09 2.40 2.55 2.35 2.18 2.27 2.12 1.94 1.74 1.71 1.66 1.66 1.72 1.75 1.68 1.55 1.49 1.38 1.25 1.20 1.22 1.45 1.82 2.13 2.39 2.51 2.59 2.53 2.19 2.00 2.00 2.12 2.07 2.12 2.43 2.79
1.24 1.28 1.57 1.77 1.86 1.94 1.97 2.08 2.38 2.73 2.52 2.23 2.44 2.85 2.65 2.42 1.95 1.61 1.72 1.77 1.82 1.76 1.63 1.47 1.47 1.39 1.35 1.46 1.14 1.19 1.62 2.11 2.53 2.69 2.61 2.44 2.27 2.02 2.05 1.97 1.90 2.08 2.41
1.57 1.55 1.61 1.73 1.81 1.96 2.09 2.14 2.19 2.52 2.62 2.41 2.38 2.97 2.97 2.75 2.53 2.03 1.69 1.74 1.86 1.91 1.86 1.73 1.59 1.53 1.44 1.58 1.38 1.06 1.23 1.53 2.04 2.46 2.66 2.61 2.43 2.12 2.05 1.99 1.92 2.04 2.18
1.86 1.88 1.91 1.99 1.91 1.90 2.00 1.99 1.98 2.23 2.58 2.65 2.48 2.32 2.28 2.39 2.74 2.48 1.94 1.78 1.81 1.82 1.91 1.77 1.77 1.79 1.74 1.69 1.58 1.24 0.99 1.10 1.54 2.19 2.70 2.68 2.48 2.30 2.17 2.10 1.94 1.94 2.06
2.43 2.41 2.33 2.17 1.98 1.93 2.00 2.03 2.04 2.16 2.29 2.46 2.43 2.25 2.21 2.17 2.06 2.27 2.25 2.03 1.82 1.70 1.81 1.83 1.81 1.81 1.88 1.83 1.73 1.40 1.03 0.85 1.03 1.63 2.30 2.49 2.48 2.35 2.28 2.19 2.02 1.90 1.79
2.43 2.37 2.20 1.95 1.79 1.75 1.84 1.99 2.00 2.07 2.08 2.17 2.16 2.05 2.06 2.04 1.99 2.15 2.10 2.10 2.06 1.68 1.54 1.61 1.66 1.71 1.69 1.70 1.55 1.62 1.28 0.94 0.83 1.10 1.59 2.00 2.28 2.43 2.39 2.45 2.30 2.11 1.91
1.83 1.83 1.83 1.80 1.68 1.60 1.70 1.92 2.02 2.06 2.05 2.05 2.00 1.92 1.96 1.83 1.88 2.17 2.26 2.17 2.05 1.71 1.52 1.42 1.46 1.50 1.42 1.51 1.58 1.70 1.43 1.16 0.94 0.94 1.15 1.42 1.69 2.02 2.38 2.63 2.77 2.66 2.50
1.62 1.64 1.70 1.71 1.65 1.61 1.63 1.75 1.89 2.00 2.00 1.95 1.88 1.99 2.01 1.80 1.86 1.92 2.03 2.24 2.12 1.87 1.63 1.36 1.27 1.24 1.29 1.33 1.47 1.65 1.20 1.13 1.00 0.91 0.92 1.05 1.29 1.51 1.82 2.23 2.60 2.71 2.68
1.28 1.38 1.50 1.58 1.54 1.51 1.52 1.65 1.80 1.83 1.91 1.98 1.99 1.98 2.00 1.90 1.91 1.94 2.08 2.21 2.24 2.02 1.77 1.49 1.31 1.17 1.21 1.20 1.40 1.30 1.11 1.15 1.07 0.99 0.96 0.94 1.06 1.25 1.47 1.57 1.66 1.79 1.95
1.19 1.21 1.18 1.19 1.17 1.21 1.23 1.32 1.50 1.60 1.64 1.73 1.75 1.78 1.83 1.80 1.87 1.90 1.99 2.09 2.09 2.04 1.88 1.58 1.38 1.29 1.31 1.18 1.31 1.19 1.21 1.37 1.19 1.06 0.98 0.94 0.97 1.07 1.14 1.16 1.16 1.14 1.17
0.88 0.93 0.86 0.85 0.91 0.95 0.90 1.00 1.11 1.20 1.31 1.41 1.42 1.47 1.53 1.53 1.67 1.71 1.82 1.92 1.96 1.94 1.73 1.50 1.36 1.37 1.38 1.36 1.32 1.22 1.23 1.26 1.17 1.07 0.94 0.85 0.89 0.95 1.01 1.05 1.05 1.00 0.98
0.59 0.64 0.63 0.60 0.66 0.79 0.82 0.91 0.96 0.96 1.06 1.19 1.27 1.32 1.31 1.32 1.43 1.51 1.58 1.66 1.81 1.87 1.78 1.60 1.43 1.34 1.23 1.26 1.40 1.43 1.37 1.29 1.28 1.33 1.22 1.06 1.00 0.97 0.93 0.98 1.04 1.00 0.96
0.51 0.52 0.52 0.54 0.56 0.64 0.78 0.84 0.86 0.85 0.87 0.90 0.97 1.00 1.04 1.14 1.30 1.35 1.36 1.47 1.62 1.69 1.80 1.67 1.53 1.42 1.25 1.21 1.38 1.38 1.41 1.57 1.47 1.53 1.65 1.45 1.22 1.08 0.96 0.99 1.04 1.02 0.95
0.48 0.47 0.45 0.46 0.54 0.64 0.71 0.79 0.80 0.77 0.76 0.81 0.85 0.84 0.83 0.89 1.03 1.17 1.25 1.41 1.58 1.72 1.79 1.71 1.64 1.58 1.47 1.35 1.44 1.53 1.57 1.65 1.67 1.49 1.50 1.47 1.41 1.31 1.12 1.01 1.06 1.11 1.10
0.43 0.40 0.39 0.42 0.48 0.54 0.59 0.73 0.75 0.76 0.79 0.76 0.78 0.81 0.81 0.82 0.84 0.90 0.90 1.09 1.30 1.55 1.66 1.72 1.70 1.70 1.62 1.54 1.46 1.60 1.65 1.76 1.84 1.81 1.67 1.49 1.45 1.30 1.18 1.11 1.08 1.11 1.17
0.43 0.40 0.38 0.40 0.40 0.38 0.57 0.66 0.69 0.75 0.82 0.86 0.83 0.82 0.79 0.76 0.86 0.85 0.82 0.85 0.98 1.14 1.32 1.43 1.49 1.52 1.57 1.64 1.74 1.75 1.71 1.76 1.80 1.78 1.65 1.66 1.59 1.48 1.32 1.14 1.15 1.16 1.18
0.41 0.40 0.40 0.41 0.41 0.38 0.42 0.44 0.57 0.70 0.84 0.88 0.83 0.92 0.94 0.84 0.86 0.90 0.94 0.86 0.79 0.82 0.98 1.19 1.31 1.33 1.41 1.49 1.71 1.75 1.75 1.75 1.65 1.68 1.53 1.57 1.51 1.39 1.30 1.27 1.28 1.19 1.19
0.38 0.39 0.44 0.44 0.40 0.35 0.36 0.35 0.44 0.57 0.72 0.76 0.75 0.85 1.08 1.09 0.97 0.95 1.01 1.07 0.95 0.80 0.80 0.86 1.04 1.19 1.24 1.40 1.74 1.95 1.89 1.65 1.57 1.61 1.50 1.50 1.42 1.29 1.21 1.19 1.26 1.17 1.14
0.38 0.35 0.37 0.40 0.39 0.37 0.37 0.36 0.39 0.48 0.59 0.62 0.65 0.77 0.91 1.04 1.00 0.98 0.96 1.02 1.03 0.91 0.87 0.90 0.87 0.95 1.09 1.27 1.55 1.84 1.94 1.84 1.63 1.55 1.42 1.34 1.34 1.31 1.33 1.28 1.24 1.23 1.13
0.41 0.41 0.39 0.36 0.34 0.34 0.37 0.38 0.40 0.41 0.45 0.46 0.52 0.69 0.89 0.86 0.85 0.91 0.96 1.05 1.14 0.97 0.88 0.97 0.93 0.96 0.99 1.19 1.54 1.75 1.89 1.87 1.70 1.62 1.49 1.39 1.37 1.38 1.55 1.49 1.31 1.26 1.19